Weather History for Wadena, MN

Change the Weather History Date:

Friday, November 4, 2011

  Actual Average Record
Temperature  
Mean Temperature 38 °F -  
Max Temperature 51 °F 41 °F 70 °F (1978)
Min Temperature 26 °F 23 °F -7 °F (1991)
Degree Days  
Heating Degree Days 26    
Moisture  
Dew Point 20 °F    
Average Humidity 51    
Maximum Humidity 74    
Minimum Humidity 30    
Precipitation  
Precipitation 0.00 in - - ()
Sea Level Pressure  
Sea Level Pressure 30.05 in    
Wind  
Wind Speed 10 mph (South)    
Max Wind Speed 23 mph    
Max Gust Speed 34 mph    
Visibility 10 miles    
Events      
Averages and records for this station are not official NWS values.
T = Trace of Precipitation, MM = Missing Value Source: NWS Daily Summary

Daily Weather History Graph

Daily Weather History Graph

Search for Another Location

Airport:

Trip Planner

Search our weather history database for the weather conditions in past years. The results will help you decide how hot, cold, wet, or windy it might be!

Date:

Astronomy

Nov. 04, 2011 Rise Set
Actual Time 8:06 AM CDT 6:01 PM CDT
Civil Twilight 7:34 AM CDT 6:33 PM CDT
Nautical Twilight 6:58 AM CDT 7:09 PM CDT
Astronomical Twilight 6:23 AM CDT 7:44 PM CDT
Moon 3:10 PM CDT (11/4) 1:59 AM CDT (11/4)
Length of Visible Light 10h 58m
Length of Day
9h 55m
Waxing Gibbous, 69% of the Moon is Illuminated
Nov 4
Waxing Gibbous
Nov 10
Full
Nov 18
Last Quarter
Nov 25
New
Dec 2
First Quarter

Hourly Weather History & Observations

Time (CDT) Temp. Windchill Dew Point Humidity Pressure Visibility Wind Dir Wind Speed Gust Speed Precip Events Conditions
12:15 AM 30.2 °F 24.3 °F 17.6 °F 60% 30.15 in 10.0 mi South 5.8 mph - N/A   Clear
12:35 AM 30.2 °F 25.4 °F 17.6 °F 60% 30.15 in 10.0 mi South 4.6 mph - N/A   Clear
12:52 AM 30.2 °F 25.4 °F 17.6 °F 60% 30.15 in 10.0 mi South 4.6 mph - N/A   Clear
1:15 AM 28.4 °F 24.6 °F 17.6 °F 64% 30.15 in 10.0 mi South 3.5 mph - N/A   Clear
1:34 AM 28.4 °F 23.3 °F 17.6 °F 64% 30.15 in 10.0 mi South 4.6 mph - N/A   Clear
1:53 AM 28.4 °F 23.3 °F 17.6 °F 64% 30.15 in 10.0 mi South 4.6 mph - N/A   Clear
2:15 AM 28.4 °F 24.6 °F 17.6 °F 64% 30.15 in 10.0 mi SSE 3.5 mph - N/A   Clear
2:34 AM 26.6 °F 21.2 °F 17.6 °F 69% 30.14 in 10.0 mi SSE 4.6 mph - N/A   Clear
2:53 AM 26.6 °F 20.0 °F 19.4 °F 74% 30.14 in 10.0 mi South 5.8 mph - N/A   Clear
3:15 AM 28.4 °F 23.3 °F 19.4 °F 69% 30.14 in 10.0 mi South 4.6 mph - N/A   Clear
3:34 AM 26.6 °F 22.6 °F 17.6 °F 69% 30.14 in 10.0 mi SSE 3.5 mph - N/A   Clear
3:53 AM 26.6 °F 21.2 °F 17.6 °F 69% 30.14 in 10.0 mi SSE 4.6 mph - N/A   Clear
4:15 AM 26.6 °F 21.2 °F 17.6 °F 69% 30.14 in 10.0 mi South 4.6 mph - N/A   Clear
4:34 AM 28.4 °F 20.4 °F 19.4 °F 69% 30.13 in 10.0 mi South 8.1 mph - N/A   Clear
4:53 AM 28.4 °F 22.2 °F 19.4 °F 69% 30.13 in 10.0 mi South 5.8 mph - N/A   Clear
5:15 AM 28.4 °F 20.4 °F 19.4 °F 69% 30.12 in 10.0 mi South 8.1 mph - N/A   Clear
5:34 AM 28.4 °F 20.4 °F 19.4 °F 69% 30.11 in 10.0 mi South 8.1 mph - N/A   Clear
5:53 AM 28.4 °F 21.2 °F 19.4 °F 69% 30.12 in 10.0 mi South 6.9 mph - N/A   Clear
6:15 AM 28.4 °F 22.2 °F 19.4 °F 69% 30.12 in 10.0 mi South 5.8 mph - N/A   Clear
6:35 AM 30.2 °F 21.9 °F 19.4 °F 64% 30.11 in 10.0 mi SSE 9.2 mph - N/A   Clear
6:52 AM 30.2 °F 21.3 °F 19.4 °F 64% 30.10 in 10.0 mi SSE 10.4 mph - N/A   Clear
7:15 AM 30.2 °F 22.6 °F 19.4 °F 64% 30.11 in 10.0 mi South 8.1 mph - N/A   Clear
7:34 AM 30.2 °F 22.6 °F 19.4 °F 64% 30.10 in 10.0 mi South 8.1 mph - N/A   Clear
7:53 AM 32.0 °F 23.0 °F 19.4 °F 60% 30.08 in 10.0 mi SSE 11.5 mph 18.4 mph N/A   Clear
8:14 AM 32.0 °F 24.2 °F 19.4 °F 60% 30.08 in 10.0 mi South 9.2 mph - N/A   Clear
8:35 AM 33.8 °F 25.3 °F 19.4 °F 56% 30.10 in 10.0 mi South 11.5 mph 16.1 mph N/A   Clear
8:52 AM 33.8 °F 25.3 °F 19.4 °F 56% 30.10 in 10.0 mi South 11.5 mph - N/A   Clear
9:15 AM 35.6 °F 27.5 °F 21.2 °F 56% 30.09 in 10.0 mi South 11.5 mph - N/A   Clear
9:35 AM 37.4 °F 29.3 °F 21.2 °F 52% 30.09 in 10.0 mi South 12.7 mph - N/A   Clear
9:52 AM 37.4 °F 27.8 °F 21.2 °F 52% 30.09 in 10.0 mi South 17.3 mph 24.2 mph N/A   Clear
10:15 AM 39.2 °F 30.2 °F 21.2 °F 49% 30.08 in 10.0 mi South 17.3 mph 26.5 mph N/A   Clear
10:34 AM 39.2 °F 29.6 °F 21.2 °F 49% 30.08 in 10.0 mi South 19.6 mph 26.5 mph N/A   Clear
10:53 AM 41.0 °F 32.5 °F 21.2 °F 45% 30.08 in 10.0 mi South 17.3 mph 23.0 mph N/A   Clear
11:14 AM 42.8 °F 34.5 °F 21.2 °F 42% 30.08 in 10.0 mi South 18.4 mph 24.2 mph N/A   Clear
11:35 AM 44.6 °F 36.6 °F 21.2 °F 39% 30.07 in 10.0 mi South 19.6 mph 25.3 mph N/A   Clear
11:53 AM 46.4 °F 39.2 °F 21.2 °F 37% 30.07 in 10.0 mi South 18.4 mph 26.5 mph N/A   Clear
12:14 PM 46.4 °F 38.3 °F 21.2 °F 37% 30.06 in 10.0 mi South 23.0 mph - N/A   Clear
12:35 PM 48.2 °F - 21.2 °F 34% 30.06 in 10.0 mi South 18.4 mph 25.3 mph N/A   Clear
12:52 PM 48.2 °F - 21.2 °F 34% 30.05 in 10.0 mi South 20.7 mph 25.3 mph N/A   Clear
1:15 PM 48.2 °F - 21.2 °F 34% 30.04 in 10.0 mi South 19.6 mph 25.3 mph N/A   Clear
1:34 PM 50.0 °F - 21.2 °F 32% 30.03 in 10.0 mi South 20.7 mph 26.5 mph N/A   Clear
1:53 PM 51.8 °F - 21.2 °F 30% 30.02 in 10.0 mi South 20.7 mph 26.5 mph N/A   Clear
2:35 PM 51.8 °F - 21.2 °F 30% 30.00 in 10.0 mi South 21.9 mph 31.1 mph N/A   Clear
2:52 PM 51.8 °F - 21.2 °F 30% 29.99 in 10.0 mi South 18.4 mph 29.9 mph N/A   Clear
3:34 PM 51.8 °F - 21.2 °F 30% 29.97 in 10.0 mi South 23.0 mph 29.9 mph N/A   Clear
3:53 PM 51.8 °F - 21.2 °F 30% 29.96 in 10.0 mi SSE 23.0 mph 34.5 mph N/A   Clear
4:35 PM 48.2 °F - 21.2 °F 34% 29.95 in 10.0 mi SSE 20.7 mph 28.8 mph N/A   Clear
4:52 PM 48.2 °F - 21.2 °F 34% 29.95 in 10.0 mi South 20.7 mph 28.8 mph N/A   Clear
5:15 PM 48.2 °F - 21.2 °F 34% 29.94 in 10.0 mi SSE 17.3 mph 27.6 mph N/A   Clear
5:34 PM 48.2 °F - 21.2 °F 34% 29.94 in 10.0 mi SSE 15.0 mph 21.9 mph N/A   Clear
5:53 PM 46.4 °F 40.4 °F 21.2 °F 37% 29.95 in 10.0 mi South 13.8 mph 20.7 mph N/A   Clear
6:15 PM 46.4 °F 40.1 °F 21.2 °F 37% 29.94 in 10.0 mi South 15.0 mph 29.9 mph N/A   Clear
6:35 PM 44.6 °F 38.4 °F 21.2 °F 39% 29.94 in 10.0 mi SSE 12.7 mph 21.9 mph N/A   Clear
6:53 PM 44.6 °F 37.8 °F 21.2 °F 39% 29.94 in 10.0 mi SSE 15.0 mph - N/A   Clear
7:14 PM 42.8 °F 35.1 °F 21.2 °F 42% 29.93 in 10.0 mi SSE 16.1 mph - N/A   Clear
7:35 PM 42.8 °F 35.8 °F 21.2 °F 42% 29.93 in 10.0 mi SSE 13.8 mph 19.6 mph N/A   Clear
7:53 PM 42.8 °F 35.8 °F 21.2 °F 42% 29.92 in 10.0 mi SSE 13.8 mph - N/A   Clear
8:15 PM 41.0 °F 33.5 °F 21.2 °F 45% 29.93 in 10.0 mi SSE 13.8 mph - N/A   Clear
8:35 PM 41.0 °F 32.8 °F 21.2 °F 45% 29.92 in 10.0 mi SSE 16.1 mph 20.7 mph N/A   Clear
8:53 PM 39.2 °F 31.2 °F 21.2 °F 49% 29.91 in 10.0 mi SSE 13.8 mph 19.6 mph N/A   Clear
9:15 PM 41.0 °F 32.2 °F 21.2 °F 45% 29.90 in 10.0 mi SSE 18.4 mph 23.0 mph N/A   Clear
9:35 PM 41.0 °F 33.1 °F 21.2 °F 45% 29.90 in 10.0 mi SSE 15.0 mph 26.5 mph N/A   Clear
9:53 PM 41.0 °F 32.2 °F 21.2 °F 45% 29.91 in 10.0 mi South 18.4 mph 27.6 mph N/A   Clear
10:15 PM 41.0 °F 31.9 °F 23.0 °F 49% 29.91 in 10.0 mi South 19.6 mph 28.8 mph N/A   Clear
10:35 PM 39.2 °F 30.5 °F 24.8 °F 56% 29.92 in 10.0 mi South 16.1 mph 26.5 mph N/A   Clear
10:52 PM 39.2 °F 29.6 °F 24.8 °F 56% 29.92 in 10.0 mi South 19.6 mph 26.5 mph N/A   Clear
11:15 PM 39.2 °F 29.6 °F 26.6 °F 61% 29.92 in 10.0 mi South 19.6 mph 26.5 mph N/A   Clear
11:53 PM 37.4 °F 28.2 °F 26.6 °F 65% 29.91 in 10.0 mi South 16.1 mph 23.0 mph N/A   Clear